Time,TemperatureF,DewpointF,PressureIn,WindDirection,WindDirectionDegrees,WindSpeedMPH,WindSpeedGustMPH,Humidity,HourlyPrecipIn,Conditions,Clouds,dailyrainin,SoftwareType,DateUTC
2013-01-15 00:03:00,28.4,23.0,30.39,West,280,0.0,3.0,79,0.00,,,0.00,weatherlink.com 1.10,2013-01-15 05:03:00,
2013-01-15 00:18:00,28.3,22.0,30.39,NNW,335,1.0,3.0,78,0.00,,,0.00,weatherlink.com 1.10,2013-01-15 05:18:00,
2013-01-15 00:37:00,28.3,22.0,30.38,WNW,294,0.0,2.0,77,0.00,,,0.00,weatherlink.com 1.10,2013-01-15 05:37:00,
2013-01-15 00:49:00,28.3,22.0,30.39,WNW,294,0.0,1.0,78,0.00,,,0.00,weatherlink.com 1.10,2013-01-15 05:49:00,
2013-01-15 01:04:00,28.2,22.0,30.39,WNW,288,1.0,4.0,78,0.00,,,0.00,weatherlink.com 1.10,2013-01-15 06:04:00,
2013-01-15 01:19:00,28.1,22.0,30.39,WNW,293,0.0,3.0,78,0.00,,,0.00,weatherlink.com 1.10,2013-01-15 06:19:00,
2013-01-15 01:34:00,28.1,22.0,30.39,WNW,293,0.0,2.0,78,0.00,,,0.00,weatherlink.com 1.10,2013-01-15 06:34:00,
2013-01-15 01:49:00,28.1,22.0,30.39,NNW,342,0.0,4.0,77,0.00,,,0.00,weatherlink.com 1.10,2013-01-15 06:49:00,
2013-01-15 02:04:00,28.0,22.0,30.40,WNW,291,1.0,4.0,78,0.00,,,0.00,weatherlink.com 1.10,2013-01-15 07:04:00,
2013-01-15 02:19:00,28.1,22.0,30.40,WNW,297,0.0,3.0,78,0.00,,,0.00,weatherlink.com 1.10,2013-01-15 07:19:00,
2013-01-15 02:34:00,28.1,23.0,30.40,West,277,0.0,3.0,80,0.00,,,0.00,weatherlink.com 1.10,2013-01-15 07:34:00,
2013-01-15 02:49:00,28.1,22.0,30.40,NW,318,0.0,3.0,79,0.00,,,0.00,weatherlink.com 1.10,2013-01-15 07:49:00,
2013-01-15 03:04:00,28.3,23.0,30.40,WNW,287,1.0,3.0,79,0.00,,,0.00,weatherlink.com 1.10,2013-01-15 08:04:00,
2013-01-15 03:19:00,28.2,22.0,30.40,West,275,0.0,3.0,79,0.00,,,0.00,weatherlink.com 1.10,2013-01-15 08:19:00,
2013-01-15 03:34:00,28.2,22.0,30.40,North,4,1.0,3.0,79,0.00,,,0.00,weatherlink.com 1.10,2013-01-15 08:34:00,
2013-01-15 03:49:00,28.2,23.0,30.39,NW,308,1.0,5.0,80,0.00,,,0.00,weatherlink.com 1.10,2013-01-15 08:49:00,
2013-01-15 04:04:00,28.1,22.0,30.39,NE,37,0.0,7.0,79,0.00,,,0.00,weatherlink.com 1.10,2013-01-15 09:04:00,
2013-01-15 04:19:00,28.1,22.0,30.39,NNE,18,0.0,4.0,79,0.00,,,0.00,weatherlink.com 1.10,2013-01-15 09:19:00,
2013-01-15 04:34:00,28.1,23.0,30.40,SW,221,0.0,3.0,80,0.00,,,0.00,weatherlink.com 1.10,2013-01-15 09:34:00,
2013-01-15 04:49:00,28.0,22.0,30.40,WNW,284,2.0,4.0,79,0.00,,,0.00,weatherlink.com 1.10,2013-01-15 09:49:00,
2013-01-15 05:04:00,27.8,22.0,30.39,North,8,3.0,5.0,78,0.00,,,0.00,weatherlink.com 1.10,2013-01-15 10:04:00,
2013-01-15 05:19:00,27.8,22.0,30.39,WNW,303,0.0,7.0,79,0.00,,,0.00,weatherlink.com 1.10,2013-01-15 10:19:00,
2013-01-15 05:34:00,27.8,22.0,30.40,WNW,301,1.0,4.0,80,0.00,,,0.00,weatherlink.com 1.10,2013-01-15 10:34:00,
2013-01-15 05:49:00,27.9,22.0,30.40,WNW,290,1.0,4.0,79,0.00,,,0.00,weatherlink.com 1.10,2013-01-15 10:49:00,
2013-01-15 06:04:00,27.8,22.0,30.40,NW,305,0.0,5.0,78,0.00,,,0.00,weatherlink.com 1.10,2013-01-15 11:04:00,
2013-01-15 06:19:00,27.8,22.0,30.41,WNW,299,3.0,5.0,78,0.00,,,0.00,weatherlink.com 1.10,2013-01-15 11:19:00,
2013-01-15 06:34:00,27.8,22.0,30.41,West,262,0.0,3.0,79,0.00,,,0.00,weatherlink.com 1.10,2013-01-15 11:34:00,
2013-01-15 06:49:00,27.8,22.0,30.42,WNW,290,1.0,2.0,78,0.00,,,0.00,weatherlink.com 1.10,2013-01-15 11:49:00,
2013-01-15 07:04:00,27.8,21.0,30.42,NW,324,2.0,3.0,77,0.00,,,0.00,weatherlink.com 1.10,2013-01-15 12:04:00,
2013-01-15 07:19:00,27.9,22.0,30.43,North,10,0.0,4.0,79,0.00,,,0.00,weatherlink.com 1.10,2013-01-15 12:19:00,
2013-01-15 07:34:00,27.9,22.0,30.43,NE,37,0.0,4.0,78,0.00,,,0.00,weatherlink.com 1.10,2013-01-15 12:34:00,
2013-01-15 07:49:00,27.8,21.0,30.44,WNW,287,0.0,3.0,76,0.00,,,0.00,weatherlink.com 1.10,2013-01-15 12:49:00,
2013-01-15 08:04:00,27.7,21.0,30.44,WNW,287,1.0,5.0,75,0.00,,,0.00,weatherlink.com 1.10,2013-01-15 13:04:00,
2013-01-15 08:19:00,27.7,21.0,30.45,North,10,0.0,5.0,76,0.00,,,0.00,weatherlink.com 1.10,2013-01-15 13:19:00,
2013-01-15 08:34:00,27.4,20.0,30.44,East,84,0.0,5.0,74,0.00,,,0.00,weatherlink.com 1.10,2013-01-15 13:34:00,
2013-01-15 08:49:00,27.3,21.0,30.43,North,10,2.0,7.0,76,0.00,,,0.00,weatherlink.com 1.10,2013-01-15 13:49:00,
2013-01-15 09:05:00,27.3,20.0,30.44,NNE,26,0.0,6.0,75,0.00,,,0.00,weatherlink.com 1.10,2013-01-15 14:05:00,
2013-01-15 09:20:00,27.4,20.0,30.44,NNE,18,3.0,7.0,75,0.00,,,0.00,weatherlink.com 1.10,2013-01-15 14:20:00,
2013-01-15 09:35:00,27.4,20.0,30.45,NE,41,3.0,6.0,75,0.00,,,0.00,weatherlink.com 1.10,2013-01-15 14:35:00,
2013-01-15 09:50:00,27.4,20.0,30.45,ENE,60,1.0,7.0,75,0.00,,,0.00,weatherlink.com 1.10,2013-01-15 14:50:00,
2013-01-15 10:05:00,27.5,20.0,30.44,NE,35,0.0,7.0,74,0.00,,,0.00,weatherlink.com 1.10,2013-01-15 15:05:00,
2013-01-15 10:20:00,27.8,20.0,30.45,ENE,59,8.0,8.0,73,0.00,,,0.00,weatherlink.com 1.10,2013-01-15 15:20:00,
2013-01-15 10:35:00,27.9,21.0,30.43,ENE,58,2.0,5.0,74,0.00,,,0.00,weatherlink.com 1.10,2013-01-15 15:35:00,
2013-01-15 10:50:00,28.3,21.0,30.43,NE,35,4.0,7.0,74,0.00,,,0.00,weatherlink.com 1.10,2013-01-15 15:50:00,
2013-01-15 11:05:00,28.6,21.0,30.42,NNE,29,6.0,9.0,73,0.00,,,0.00,weatherlink.com 1.10,2013-01-15 16:05:00,
2013-01-15 11:20:00,28.6,22.0,30.41,East,86,1.0,6.0,75,0.00,,,0.00,weatherlink.com 1.10,2013-01-15 16:20:00,
2013-01-15 11:35:00,29.4,22.0,30.41,ESE,119,2.0,4.0,74,0.00,,,0.00,weatherlink.com 1.10,2013-01-15 16:35:00,
2013-01-15 11:50:00,29.9,22.0,30.41,NNE,31,2.0,8.0,73,0.00,,,0.00,weatherlink.com 1.10,2013-01-15 16:50:00,
2013-01-15 12:05:00,30.1,22.0,30.41,NNW,332,3.0,5.0,72,0.00,,,0.00,weatherlink.com 1.10,2013-01-15 17:05:00,
2013-01-15 12:20:00,29.9,22.0,30.40,North,11,1.0,5.0,72,0.00,,,0.00,weatherlink.com 1.10,2013-01-15 17:20:00,
2013-01-15 12:35:00,29.9,22.0,30.39,WNW,297,0.0,5.0,72,0.00,,,0.00,weatherlink.com 1.10,2013-01-15 17:35:00,
2013-01-15 12:50:00,30.2,22.0,30.39,SE,124,5.0,5.0,72,0.00,,,0.00,weatherlink.com 1.10,2013-01-15 17:50:00,
2013-01-15 13:05:00,30.4,22.0,30.38,NE,35,0.0,6.0,70,0.00,,,0.00,weatherlink.com 1.10,2013-01-15 18:05:00,
2013-01-15 13:20:00,30.7,22.0,30.36,ENE,72,5.0,7.0,69,0.00,,,0.00,weatherlink.com 1.10,2013-01-15 18:20:00,
2013-01-15 13:35:00,31.1,21.0,30.33,ENE,71,4.0,6.0,67,0.00,,,0.00,weatherlink.com 1.10,2013-01-15 18:35:00,
2013-01-15 13:50:00,31.7,21.0,30.33,NNE,32,0.0,5.0,65,0.00,,,0.00,weatherlink.com 1.10,2013-01-15 18:50:00,
2013-01-15 14:05:00,32.3,21.0,30.34,NE,46,3.0,7.0,64,0.00,,,0.00,weatherlink.com 1.10,2013-01-15 19:05:00,
2013-01-15 14:20:00,31.9,22.0,30.35,NE,36,0.0,5.0,67,0.00,,,0.00,weatherlink.com 1.10,2013-01-15 19:20:00,
2013-01-15 14:35:00,32.0,22.0,30.34,NNE,14,1.0,5.0,68,0.00,,,0.00,weatherlink.com 1.10,2013-01-15 19:35:00,
2013-01-15 14:50:00,31.9,22.0,30.35,NE,35,3.0,6.0,68,0.00,,,0.00,weatherlink.com 1.10,2013-01-15 19:50:00,
2013-01-15 15:05:00,31.8,23.0,30.33,NNE,25,4.0,7.0,69,0.00,,,0.00,weatherlink.com 1.10,2013-01-15 20:05:00,
2013-01-15 15:20:00,31.7,23.0,30.32,NE,48,3.0,7.0,71,0.00,,,0.00,weatherlink.com 1.10,2013-01-15 20:20:00,
2013-01-15 15:35:00,31.5,23.0,30.31,NE,50,1.0,7.0,72,0.00,,,0.00,weatherlink.com 1.10,2013-01-15 20:35:00,
2013-01-15 15:50:00,31.0,24.0,30.32,NE,45,1.0,7.0,74,0.00,,,0.00,weatherlink.com 1.10,2013-01-15 20:50:00,
2013-01-15 16:05:00,30.4,23.0,30.32,NNE,17,3.0,7.0,74,0.00,,,0.00,weatherlink.com 1.10,2013-01-15 21:05:00,
2013-01-15 16:20:00,30.2,23.0,30.33,NNE,16,3.0,10.0,75,0.00,,,0.00,weatherlink.com 1.10,2013-01-15 21:20:00,
2013-01-15 16:35:00,30.0,23.0,30.33,NE,35,0.0,7.0,76,0.00,,,0.00,weatherlink.com 1.10,2013-01-15 21:35:00,
2013-01-15 16:50:00,29.7,23.0,30.32,NE,35,8.0,8.0,77,0.00,,,0.00,weatherlink.com 1.10,2013-01-15 21:50:00,
2013-01-15 17:05:00,29.6,23.0,30.32,North,4,5.0,7.0,77,0.00,,,0.00,weatherlink.com 1.10,2013-01-15 22:05:00,
2013-01-15 17:20:00,29.5,23.0,30.32,NW,322,0.0,7.0,77,0.00,,,0.00,weatherlink.com 1.10,2013-01-15 22:20:00,
2013-01-15 17:35:00,29.5,23.0,30.33,NNE,33,2.0,6.0,77,0.00,,,0.00,weatherlink.com 1.10,2013-01-15 22:35:00,
2013-01-15 17:50:00,29.5,23.0,30.33,NE,39,0.0,5.0,77,0.00,,,0.00,weatherlink.com 1.10,2013-01-15 22:50:00,
2013-01-15 18:20:00,29.6,23.0,30.29,ENE,58,0.0,3.0,77,0.00,,,0.00,weatherlink.com 1.10,2013-01-15 23:20:00,
2013-01-15 18:35:00,29.6,23.0,30.29,East,79,5.0,7.0,77,0.00,,,0.00,weatherlink.com 1.10,2013-01-15 23:35:00,
2013-01-15 18:50:00,29.6,23.0,30.29,North,8,1.0,5.0,77,0.00,,,0.00,weatherlink.com 1.10,2013-01-15 23:50:00,
2013-01-15 19:05:00,29.7,24.0,30.29,NE,48,0.0,3.0,78,0.00,,,0.00,weatherlink.com 1.10,2013-01-16 00:05:00,
2013-01-15 19:20:00,29.7,24.0,30.28,NNE,14,3.0,3.0,78,0.00,,,0.00,weatherlink.com 1.10,2013-01-16 00:20:00,
2013-01-15 19:35:00,29.9,24.0,30.27,NE,48,0.0,2.0,79,0.00,,,0.00,weatherlink.com 1.10,2013-01-16 00:35:00,
2013-01-15 19:50:00,30.1,24.0,30.26,NE,48,0.0,3.0,77,0.00,,,0.00,weatherlink.com 1.10,2013-01-16 00:50:00,
2013-01-15 20:05:00,30.1,24.0,30.26,NNE,25,2.0,5.0,77,0.00,,,0.00,weatherlink.com 1.10,2013-01-16 01:05:00,
2013-01-15 20:20:00,30.1,24.0,30.26,NE,42,0.0,3.0,77,0.00,,,0.00,weatherlink.com 1.10,2013-01-16 01:20:00,
2013-01-15 20:36:00,30.1,24.0,30.24,ENE,58,3.0,3.0,78,0.00,,,0.00,weatherlink.com 1.10,2013-01-16 01:36:00,
2013-01-15 20:51:00,30.2,24.0,30.24,NE,44,0.0,1.0,78,0.00,,,0.00,weatherlink.com 1.10,2013-01-16 01:51:00,
2013-01-15 21:06:00,30.3,24.0,30.24,NNE,19,0.0,1.0,78,0.00,,,0.00,weatherlink.com 1.10,2013-01-16 02:06:00,
2013-01-15 21:21:00,30.3,24.0,30.23,NE,41,2.0,4.0,78,0.00,,,0.00,weatherlink.com 1.10,2013-01-16 02:21:00,
2013-01-15 21:36:00,30.3,24.0,30.23,NE,54,0.0,3.0,78,0.00,,,0.00,weatherlink.com 1.10,2013-01-16 02:36:00,
2013-01-15 21:51:00,30.3,24.0,30.22,ENE,60,0.0,4.0,78,0.00,,,0.00,weatherlink.com 1.10,2013-01-16 02:51:00,
2013-01-15 22:06:00,30.5,24.0,30.22,East,79,0.0,3.0,78,0.00,,,0.00,weatherlink.com 1.10,2013-01-16 03:06:00,
2013-01-15 22:21:00,30.6,25.0,30.20,ENE,73,0.0,2.0,78,0.00,,,0.00,weatherlink.com 1.10,2013-01-16 03:21:00,
2013-01-15 22:36:00,30.7,25.0,30.18,ENE,78,1.0,3.0,79,0.00,,,0.00,weatherlink.com 1.10,2013-01-16 03:36:00,
2013-01-15 22:51:00,30.7,25.0,30.17,East,90,1.0,4.0,79,0.00,,,0.00,weatherlink.com 1.10,2013-01-16 03:51:00,
2013-01-15 23:06:00,30.7,25.0,30.17,East,100,0.0,3.0,79,0.00,,,0.00,weatherlink.com 1.10,2013-01-16 04:06:00,
2013-01-15 23:21:00,30.8,25.0,30.16,East,101,0.0,2.0,79,0.00,,,0.00,weatherlink.com 1.10,2013-01-16 04:21:00,
2013-01-15 23:36:00,30.7,25.0,30.14,ENE,76,0.0,3.0,79,0.00,,,0.00,weatherlink.com 1.10,2013-01-16 04:36:00,
2013-01-15 23:51:00,30.6,25.0,30.15,NNE,33,1.0,3.0,79,0.00,,,0.00,weatherlink.com 1.10,2013-01-16 04:51:00,